Regional Weather Roundup
Issued by NWS

Home | Current Version | Previous Version | Graphics & Text | Print | Product List | Glossary On
Versions: 1 2 3 4 5 6 7 8 9 10 11 12 13 14 15 16 17 18 19 20 21 22 23 24 25 26 27 28 29 30 31 32 33 34 35 36 37 38 39 40 41 42 43 44 45 46 47 48 49 50
000
ASUS43 KDTX 040101
RWRMI
MICHIGAN HOURLY REGIONAL WEATHER ROUNDUP
NATIONAL WEATHER SERVICE DETROIT/PONTIAC MI
800 PM EST TUE MAR 03 2015

NOTE: "FAIR" INDICATES FEW OR NO CLOUDS BELOW 12,000 FEET WITH NO
SIGNIFICANT WEATHER AND/OR OBSTRUCTION TO VISIBILITY.

MIZ047>049-052>055-059>063-066>070-074>076-081>083-040200-
SOUTHEAST LOWER MICHIGAN

CITY           SKY/WX    TMP DP  RH WIND       PRES   REMARKS
ADRIAN         CLOUDY    36  31  82 W15G25    29.70R WCI  27
ALMA           CLOUDY    32  29  89 W17G24    29.65R WCI  20
ANN ARBOR      CLOUDY    35  31  85 W18G25    29.64R WCI  24
BAD AXE        CLOUDY    31  30  96 W13G22    29.57R WCI  21
CARO           CLOUDY    32  29  88 W16G22    29.58R WCI  22
DETROIT CITY   CLOUDY    38  31  76 W12G20    29.63R WCI  30
DETROIT        CLOUDY    37  32  82 SW20G30   29.65R WCI  27
FLINT          CLOUDY    35  28  75 W23G31    29.63R WCI  23
GROSSE ILE     CLOUDY    37  34  87 SW9G17    29.63S WCI  31
HILLSDALE      CLOUDY    35  33  91 W22G28    29.69R WCI  23
HOWELL         CLOUDY    33  30  88 W23G29    29.64R WCI  20

CITY           SKY/WX    TMP DP  RH WIND       PRES   REMARKS
JACKSON        CLOUDY    34  29  82 W16G26    29.67R WCI  24
LAMBERTVILLE   CLOUDY    37  32  81 W12G18    29.70R WCI  30
LANSING        CLOUDY    33  27  78 W20       29.67R WCI  21
LAPEER         CLOUDY    33  30  90 W14G23    29.59R WCI  23
MASON          CLOUDY    33  28  83 W14G24    29.66R WCI  23
MONROE         CLOUDY    37  34  87 W16G28    29.64R WCI  28
MT. CLEMENS    CLOUDY    35  32  87 W9        29.59R WCI  28
PONTIAC        CLOUDY    34  30  85 W26G32    29.61R WCI  21
PORT HOPE        N/A     31  27  85 W8        29.54R WCI  23
PORT HURON     CLOUDY    32  32 100 SW5       29.60R WCI  27
TRI CITIES     CLOUDY    33  27  78 W24G32    29.61R WCI  20
TROY           CLOUDY    37  32  83 W15G22    29.63R WCI  28
SAGINAW HB     CLOUDY    32  32 100 W17       29.61R WCI  21
$$
MIZ043>046-050>051-056>058-064>065-071>073-077>080-040200-
SOUTHWEST LOWER MICHIGAN

CITY           SKY/WX    TMP DP  RH WIND       PRES   REMARKS
BATTLE CREEK   CLOUDY    35  28  75 W17       29.71R WCI  25
BENTON HARBOR  CLOUDY    33  30  88 W14       29.74R WCI  23
BIG RAPIDS     CLOUDY    29  26  90 W10       29.63R WCI  20
COLDWATER      CLOUDY    34  31  88 W17G26    29.71R WCI  23
FREMONT        CLOUDY    29  25  83 W12       29.68R WCI  20
HOLLAND        CLOUDY    34  28  79 W16G24    29.73R WCI  24
GRAND RAPIDS   CLOUDY    32  27  81 W20G29    29.69R WCI  20
IONIA          CLOUDY    33  29  85 W20G30    29.66R WCI  21
KALAMAZOO      CLOUDY    34  28  79 W14G26    29.73R WCI  25
LUDINGTON      CLOUDY    31  24  75 NW13G20   29.67R WCI  21
MARSHALL       CLOUDY    33  29  86 W15G24    29.69R WCI  22
MOUNT PLEASANT CLOUDY    31  28  86 W15G23    29.62R WCI  20
MUSKEGON       CLOUDY    31  25  78 W15       29.71R WCI  20
SOUTH HAVEN    CLOUDY    34  31  88 W12G17    29.73R WCI  25
$$
MIZ016>042-040200-
NORTHERN LOWER MICHIGAN

CITY           SKY/WX    TMP DP  RH WIND       PRES   REMARKS
ALPENA         CLOUDY    25  22  88 SW5       29.52R WCI  19
BEAVER ISLAND  CLEAR     23  20  89 W14       29.56R WCI  11
BELLAIRE       CLOUDY    28  24  83 W6        29.59R WCI  22
CADILLAC       CLOUDY    26  22  86 W9G20     29.58R WCI  16
CHARLEVOIX     CLEAR     24  21  89 W18       29.60R WCI  10
FRANKFORT      MOCLDY    28  23  80 W10G18    29.63R WCI  19
GAYLORD        CLOUDY    25  22  88 W18G30    29.50R WCI  11
GRAYLING       CLOUDY    28  25  89 W16G23    29.54R WCI  16
HARBOR SPRINGS CLOUDY    26  24  91 W9G22     29.54R WCI  17
HOUGHTON LAKE  CLOUDY    27  22  81 W18G30    29.56R WCI  14
MANISTEE       CLOUDY    28  19  69 W20G28    29.65R WCI  15
OSCODA         CLOUDY    26  25  96 SW8       29.55R WCI  17
PELLSTON       CLOUDY    27  23  85 W14G20    29.53R WCI  16
ROGERS CITY    FLURRIES  24  23  98 SW5       29.52R WCI  18
TRAVERSE CITY  MOCLDY    28  21  75 W14       29.60R WCI  17
$$
MIZ007>008-015-040200-
EASTERN UPPER MICHIGAN

CITY           SKY/WX    TMP DP  RH WIND       PRES   REMARKS
KINROSS        CLOUDY    21  19  93 SW3       29.50R
MACKINAC ISLAN FLURRIES  24  23  96 W8        29.52R WCI  15
NEWBERRY       LGT SNOW  21  20  98 SW8       29.52R WCI  11
S. S. MARIE    CLOUDY    22  19  89 SW3       29.50R
MUNISING         N/A     28  19  69 SW5       29.54R WCI  23
$$
MIZ004>006-011>014-085-040200-
CENTRAL UPPER MICHIGAN

CITY           SKY/WX    TMP DP  RH WIND       PRES   REMARKS
MANISTIQUE     PTCLDY    24  20  87 W3        29.55R
ESCANABA       CLOUDY    27  19  74 SW5       29.60R WCI  21
MENOMINEE      CLOUDY    28  18  64 W6        29.61R WCI  22
SAWYER-GWINN   FLURRIES  25  19  80 W7        29.52R WCI  17
$$
MIZ001>003-009>011-084-040200-
WESTERN UPPER MICHIGAN

CITY           SKY/WX    TMP DP  RH WIND       PRES   REMARKS
IRON MOUNTAIN  FLURRIES  25  17  72 W7        29.56R WCI  17
HOUGHTON       MIX PCPN  19  12  74 W26G36    29.53R WCI   1
COPPER HARBOR    N/A     24  16  71 NW20G36   29.50R WCI  10
IRONWOOD       CLOUDY    19   9  63 W15G22    29.63R WCI   5
$$

ABBREVIATIONS USED IN REMARKS
   TC - TEMPERATURE IN CELSIUS
  WCI - WIND CHILL INDEX
   HX - HEAT INDEX
  VSB - VISIBILITY



USA.gov is the U.S. government's official web portal to all federal, state and local government web resources and services.